Regional Weather Roundup
Issued by NWS

Home | Current Version | Previous Version | Text Only | Print | Product List | Glossary On
Versions: 1 2 3 4 5 6 7 8 9 10 11 12 13 14 15 16 17 18 19 20 21 22 23 24 25 26 27 28 29 30 31 32 33 34 35 36 37 38 39 40 41 42 43 44 45 46 47 48 49 50
000
ASUS43 KDTX 271001
RWRMI
MICHIGAN HOURLY REGIONAL WEATHER ROUNDUP
NATIONAL WEATHER SERVICE DETROIT/PONTIAC MI
600 AM EDT WED JUL 27 2016

NOTE: "FAIR" INDICATES FEW OR NO CLOUDS BELOW 12,000 FEET WITH NO
SIGNIFICANT WEATHER AND/OR OBSTRUCTION TO VISIBILITY.

MIZ047>049-052>055-059>063-066>070-074>076-081>083-271100-
SOUTHEAST LOWER MICHIGAN

CITY           SKY/WX    TMP DP  RH WIND       PRES   REMARKS
ADRIAN         CLEAR     61  61 100 CALM      30.03R
ALMA           CLEAR     63  63 100 CALM      30.01S
ANN ARBOR      FOG       57  57 100 S3        30.01S VSB 1/2
BAD AXE        CLEAR     63  60  90 CALM      29.98R
CARO           CLEAR     61  60  97 CALM      29.99R
DETROIT CITY   CLEAR     70  63  78 SW3       30.00R
DETROIT        CLEAR     68  61  78 SW5       30.02R
FLINT          CLEAR     66  61  84 CALM      30.01R
GROSSE ILE     CLEAR     68  62  79 CALM      30.00R
HOWELL         CLEAR     65  63  92 CALM      30.01S

CITY           SKY/WX    TMP DP  RH WIND       PRES   REMARKS
JACKSON        CLEAR     63  63 100 SW3       30.03R
LAMBERTVILLE   CLEAR     64  61  93 CALM      30.02R
LANSING        CLEAR     64  61  90 CALM      30.02R
LAPEER         FAIR      59  58  96 CALM      30.01R FOG
MASON          CLEAR     62  61  96 CALM      30.03R
MONROE         CLEAR     62  62  99 CALM      30.01R
MT. CLEMENS    CLEAR     66  62  85 SW2       29.98R
PONTIAC        PTCLDY    67  62  84 CALM      30.01R
PORT HURON     FOG       59  59 100 CALM      29.99S VSB 1/2
TRI CITIES     CLEAR     66  63  90 SW7       30.00R
MIDLAND        FAIR      63  62  97 CALM      29.99R
TROY           CLEAR     70  63  79 CALM      30.02R
SAGINAW HB     CLEAR     64  61  88 SW5       29.99R
$$
MIZ043>046-050>051-056>058-064>065-071>073-077>080-271100-
SOUTHWEST LOWER MICHIGAN

CITY           SKY/WX    TMP DP  RH WIND       PRES   REMARKS
BATTLE CREEK   CLEAR     63  63 100 CALM      30.04R
BENTON HARBOR  MOCLDY    62  59  90 CALM      30.02R
BIG RAPIDS     CLEAR     63  63 100 E3        30.00S
COLDWATER      CLEAR     62  62  99 CALM      30.03R
FREMONT        FAIR      63  63 100 CALM      30.00S
HOLLAND        CLEAR     62  61  96 CALM      30.02R
GRAND RAPIDS   PTCLDY    65  61  87 CALM      30.02R
IONIA          FAIR      64  61  88 CALM      30.02R
KALAMAZOO      CLEAR     64  61  90 CALM      30.03R
LUDINGTON      MOCLDY    73  68  84 SW5       29.97S
MARSHALL       CLEAR     63  63  98 CALM      30.03R
MOUNT PLEASANT CLEAR     68  61  77 W5        29.99S
MUSKEGON       PTCLDY    68  66  93 CALM      30.00S
SOUTH HAVEN    CLEAR     61  60  99 CALM      30.02R
$$
MIZ016>042-271100-
NORTHERN LOWER MICHIGAN

CITY           SKY/WX    TMP DP  RH WIND       PRES   REMARKS
ALPENA         CLEAR     67  61  81 W5        29.93R
BEAVER ISLAND  PTCLDY    68  65  90 NW5       29.95S
BELLAIRE       CLEAR     64  61  91 CALM      29.95S
CADILLAC       CLEAR     65  60  85 SW6       29.99S
CHARLEVOIX     PTCLDY    70  67  92 W5        29.98R
FRANKFORT      PTCLDY    71  66  85 CALM      29.96S
GAYLORD        CLEAR     70  59  68 W6        29.97R
GRAYLING       CLEAR     67  59  75 W3        29.98R
HARBOR SPRINGS CLEAR     68  66  94 CALM      29.95R
HOUGHTON LAKE  PTCLDY    70  60  70 SW5       29.99R
MANISTEE       CLOUDY    66  64  93 E5        29.96S
OSCODA         CLEAR     68  61  77 S3        29.93F
PELLSTON       CLEAR     66  64  93 W6        29.95R
ROGERS CITY    PTCLDY    67  62  85 SW5       29.93S
TRAVERSE CITY  CLEAR     72  63  73 CALM      29.94R
$$
MIZ007>008-015-271100-
EASTERN UPPER MICHIGAN

CITY           SKY/WX    TMP DP  RH WIND       PRES   REMARKS
KINROSS        CLEAR     64  64 100 N8        29.93S
MACKINAC ISLAN CLEAR     66  66 100 NW7       29.93R
S. S. MARIE    PTCLDY    64  63  96 NW3       29.92S
$$
MIZ004>006-011>014-085-271100-
CENTRAL UPPER MICHIGAN

CITY           SKY/WX    TMP DP  RH WIND       PRES   REMARKS
MANISTIQUE     PTCLDY    64  63  97 CALM      29.95F
ESCANABA       CLOUDY    70  64  83 NW6       29.93F
MENOMINEE      PTCLDY   N/A N/A N/A CALM      29.96F
SAWYER-GWINN   CLOUDY    65  63  94 N6        29.97F
$$
MIZ001>003-009>011-084-271100-
WESTERN UPPER MICHIGAN

CITY           SKY/WX    TMP DP  RH WIND       PRES   REMARKS
IRON MOUNTAIN  CLOUDY    65  61  87 SW5       29.94F
HOUGHTON       CLOUDY    64  59  83 NW5       29.98R
IRONWOOD       CLOUDY    66  66 100 CALM      29.96S
$$

ABBREVIATIONS USED IN REMARKS
   TC - TEMPERATURE IN CELSIUS
  WCI - WIND CHILL INDEX
   HX - HEAT INDEX
  VSB - VISIBILITY




USA.gov is the U.S. government's official web portal to all federal, state and local government web resources and services.